Regional Weather Roundup
Issued by NWS

Home | Current Version | Previous Version | Text Only | Print | Product List | Glossary On
Versions: 1 2 3 4 5 6 7 8 9 10 11 12 13 14 15 16 17 18 19 20 21 22 23 24 25 26 27
000
ASUS45 KSLC 300910
RWRUT

UTAH REGIONAL WEATHER ROUNDUP
NATIONAL WEATHER SERVICE SALT LAKE CITY UT
300 AM MDT TUE MAY 30 2017

UTZ001>011-023>025-301000-

NORTHERN UTAH

CITY           SKY/WX    TMP DP  RH WIND       PRES   REMARKS
BRIGHAM CITY   CLEAR     59  39  48 W6        30.06S
HILL AFB       CLEAR     60  38  43 E16       30.08S
LOGAN          CLEAR     52  43  71 CALM      30.10S
OGDEN          CLEAR     58  38  47 S7        30.05S
SALT LAKE CITY CLEAR     64  43  46 S7        30.05R
TOOELE VALLEY  CLEAR     52  39  62 S9        30.06S
WENDOVER       CLEAR     61  32  33 NE3       30.06S
WEST JORDAN    CLEAR     56  46  67 CALM      30.08S

$$

UTZ011>015-024>027-301000-

CENTRAL/NORTHEAST UTAH

CITY           SKY/WX    TMP DP  RH WIND       PRES   REMARKS
PROVO AIRPORT  CLEAR     56  35  45 SE5       30.09S
MOAB/CANYONLAN CLEAR     63  26  24 S6        30.04R
DELTA          CLEAR     52  32  46 NE8       30.07S
PRICE          CLEAR     54  29  38 N12       30.14S
ROOSEVELT      CLEAR     45  37  76 W7        30.18S
VERNAL         CLEAR     57  34  41 NW7       30.16S

$$

UTZ013>016-019>022-027-301000-

SOUTHERN UTAH

CITY           SKY/WX    TMP DP  RH WIND       PRES   REMARKS
BRYCE CANYON   PTCLDY    39  26  59 W12       30.25F WCI  32
CEDAR CITY     PTCLDY    50  25  37 N5        30.09S
MILFORD        CLEAR     49  22  34 W6        30.07S
ST GEORGE      SUNNY     71  25  17 SE3       29.90R
HANKSVILLE     CLEAR     59  12  15 W7        30.07S
BLANDING       CLEAR     58  19  22 N12       30.20S

$$

REGIONAL REPORTS     COLORADO/ARIZONA

CITY           SKY/WX    TMP DP  RH WIND       PRES   REMARKS
CRAIG, CO      CLEAR     38  34  85 CALM      30.24R
GRAND JUNCTION CLEAR     60  31  33 CALM      30.10S
RIFLE, CO      CLEAR     50  30  46 E5        30.19S
MONTROSE, CO   CLEAR     52  28  39 SE8       30.18S
CORTEZ, CO     CLEAR     40  32  73 CALM      30.17S
COLORADO CITY    N/A     73  27  17 NE13      30.05F
PAGE, AZ       CLEAR     66  24  20 CALM      30.01S
GRAND CANYON   PTCLDY    41  28  60 NE3       30.17S
KINGMAN, AZ    MOCLDY    71  19  14 CALM      29.92S
FLAGSTAFF, AZ  CLEAR     40  24  53 CALM      30.19F

$$

REGIONAL REPORTS    NEVADA/IDAHO/WYOMING

CITY           SKY/WX    TMP DP  RH WIND       PRES   REMARKS
LAS VEGAS, NV  PTCLDY    80  17   9 SW5       29.80S
ELY, NY        CLEAR     43  27  53 S12       30.17S
ELKO, NV       CLEAR     54  31  41 CALM      30.08S
POCATELLO, ID  CLEAR     49  40  71 CALM      30.10S
BURLEY, ID     CLEAR     53  45  74 CALM      30.04F
FORT BRIDGER,    N/A     46  33  61 N3        30.27S
EVANSTON, WY   CLEAR     49  34  56 SE6       30.24S
ROCK SPRINGS,  CLEAR     48  32  53 NE3       30.25F
KEMMERER, WY     N/A     45  34  65 N9        30.28S

$$




USA.gov is the U.S. government's official web portal to all federal, state and local government web resources and services.